Theta_e
332 335 335 334 334 331 331 331 331 332 334 336 336 336 337 338 347 346 343 342 342 342 340 340 339 337 336 336 335 335 334 334 333 333 331 330 330 329 327 323 324 325 323 322
334 333 332 332 331 330 330 331 331 332 333 337 335 336 337 337 339 341 342 343 343 342 339 338 337 337 336 335 334 335 335 335 332 334 333 333 331 325 322 322 321 321 322 319
334 333 331 332 332 332 331 332 331 331 331 335 336 342 339 335 342 341 342 343 343 342 340 338 337 335 335 335 334 335 336 337 336 335 335 329 328 326 324 321 319 321 320 320
334 332 332 332 332 331 331 331 330 330 332 334 338 340 340 339 341 340 341 342 343 343 341 339 337 337 336 335 335 336 337 337 336 335 332 329 323 318 318 318 319 320 320 320
332 332 332 333 332 332 331 331 330 331 332 338 337 339 339 336 341 342 338 336 339 341 342 341 338 338 339 337 333 328 336 335 332 330 321 320 320 319 317 318 319 320 320 320
330 330 331 331 331 330 330 330 331 332 337 340 339 339 339 339 337 334 332 333 335 338 342 341 339 338 340 337 335 336 325 331 328 326 323 322 319 322 322 321 320 319 319 318
329 329 330 330 329 329 330 335 339 341 337 337 337 337 340 335 333 332 332 332 336 339 341 341 340 342 340 339 337 333 334 330 324 322 322 324 324 325 325 323 322 319 319 318
330 333 331 330 331 330 332 338 340 338 341 336 331 338 340 333 332 332 332 332 334 336 336 337 338 336 335 334 330 328 328 323 321 322 323 325 325 323 322 321 322 322 319 317
333 334 330 331 332 330 331 338 337 335 333 335 336 336 333 333 332 331 332 333 333 334 334 335 335 333 331 328 327 326 324 320 317 319 325 324 323 323 322 321 320 319 317 317
333 332 331 332 333 331 332 334 335 333 335 337 337 335 336 333 333 332 332 333 333 333 333 333 333 331 330 327 323 318 317 319 322 322 321 321 321 320 319 317 316 315 314 314
334 334 333 332 334 334 334 335 335 338 336 338 339 336 333 333 333 333 331 331 332 333 332 331 329 328 325 321 320 320 320 320 320 320 320 320 319 317 315 314 314 313 312 312
336 338 336 332 334 334 333 334 335 335 335 337 337 336 332 332 331 330 329 331 332 331 331 328 325 322 322 320 319 318 320 320 320 319 317 315 314 314 313 312 311 311 311 311
339 338 338 335 337 335 332 331 333 335 336 337 339 339 332 329 329 328 327 327 328 328 326 324 323 322 319 320 320 320 320 319 316 315 313 312 312 312 311 310 310 310 309 310
335 341 340 338 337 335 335 334 332 333 335 335 336 335 332 329 328 326 326 326 325 324 324 324 322 321 320 320 320 319 317 315 313 312 311 310 310 310 310 308 308 307 308 308
335 340 335 335 334 332 333 333 331 332 332 334 333 332 330 327 324 323 324 324 324 323 322 321 320 319 318 318 318 315 314 313 312 311 310 310 309 309 307 307 306 305 306 307
339 341 337 337 334 334 333 332 331 332 332 331 329 331 327 324 322 321 320 320 320 320 319 319 318 317 317 316 315 314 313 312 311 310 309 309 309 308 308 308 307 307 307 307
340 340 340 337 337 336 333 334 333 332 331 330 330 330 325 323 321 320 319 319 319 319 318 317 317 317 317 315 313 313 311 311 311 310 310 309 309 308 309 308 307 307 307 306
340 341 341 336 336 336 336 334 332 331 330 329 328 326 323 321 319 319 320 318 318 318 318 318 317 315 314 314 313 312 311 311 311 310 310 309 309 308 308 306 306 306 305 306
339 340 340 342 333 335 335 334 333 332 332 330 328 325 321 320 319 321 320 319 318 318 318 317 315 314 314 314 313 312 312 312 312 311 310 310 309 308 306 305 306 306 306 307
339 341 340 335 336 333 337 334 331 330 334 328 325 322 320 319 322 324 320 318 318 317 316 316 315 314 314 314 314 313 312 312 312 311 310 311 309 307 307 306 305 306 307 308
341 341 337 334 336 335 335 331 330 334 336 326 322 321 320 321 321 319 318 317 316 316 316 315 314 314 314 314 314 313 313 313 312 311 310 311 309 308 306 306 306 307 308 308
336 338 336 338 332 333 331 330 332 332 327 324 322 321 320 320 319 318 316 317 317 316 316 315 314 314 314 313 314 313 313 313 313 311 311 311 309 308 306 306 306 306 307 310
338 340 339 338 339 334 330 330 329 326 324 324 322 320 320 319 319 317 317 318 318 318 317 316 314 314 314 314 314 314 313 313 313 311 311 312 310 309 307 307 307 307 307 308
338 333 332 334 334 332 328 325 324 323 323 322 321 320 319 318 317 316 317 318 318 318 318 317 316 315 313 313 313 313 313 313 313 311 311 311 311 309 308 308 308 308 308 308
333 331 330 332 330 327 325 324 322 320 321 320 320 319 317 316 317 317 318 318 318 318 318 318 317 317 315 314 314 313 313 313 313 312 312 310 309 309 308 309 309 308 308 307
328 333 331 332 327 326 325 322 320 319 319 319 319 319 318 318 318 318 318 318 318 318 318 318 318 318 316 314 312 312 313 313 313 312 312 311 309 309 309 308 309 309 308 308
Wind_Speed
16 12 14 8 16 13 9 10 13 10 4 4 13 15 12 7 12 10 13 15 16 18 18 19 19 19 19 19 18 16 15 15 12 10 8 10 12 12 11 12 10 10 13 15
14 13 18 2 8 9 10 17 12 13 7 8 15 18 14 15 9 13 14 15 15 16 18 18 18 19 20 19 15 15 14 14 14 11 9 9 8 10 13 14 12 10 7 13
9 22 4 18 17 15 11 15 13 17 14 12 18 14 21 8 8 7 8 11 13 14 18 20 20 19 19 21 16 20 15 18 15 11 9 10 11 11 10 6 7 5 10 13
18 26 17 12 17 13 17 8 16 17 16 14 12 14 20 18 13 23 12 5 9 13 14 19 20 18 21 18 14 16 21 20 12 10 8 7 11 10 10 14 13 10 15 15
17 19 24 18 14 24 17 17 13 17 18 24 12 4 5 25 8 11 7 10 6 8 11 14 17 21 25 20 21 27 19 4 4 6 3 6 9 11 12 13 15 15 18 15
22 23 9 16 21 13 19 15 18 22 4 5 12 2 6 10 12 13 14 13 10 6 4 7 15 20 11 9 13 12 8 6 8 3 6 11 11 12 14 16 17 19 17 20
21 18 21 19 17 15 22 13 10 19 11 6 4 11 8 14 12 12 13 13 7 5 4 10 11 6 5 6 9 14 9 8 5 8 7 11 14 15 17 18 20 22 21 24
14 18 23 13 19 19 3 13 10 10 7 18 12 1 1 8 11 10 8 9 3 2 3 1 3 4 4 10 3 3 6 4 11 5 8 12 14 16 17 19 16 18 22 24
18 25 12 18 18 11 13 4 24 10 16 14 5 7 17 3 7 13 12 6 10 4 3 4 5 5 13 8 5 4 6 8 21 6 11 12 14 15 17 17 19 20 23 25
16 20 17 7 16 13 11 16 12 8 10 15 7 8 5 10 10 12 12 7 7 8 3 2 6 11 11 8 5 5 9 21 10 10 12 12 12 13 16 19 22 25 24 25
12 12 16 4 9 6 3 11 5 9 4 7 9 1 7 9 11 13 15 13 6 3 7 10 10 6 5 3 6 14 7 9 9 10 12 13 15 17 19 21 22 25 25 24
3 5 12 11 26 28 12 10 10 7 9 7 13 3 8 9 12 13 14 13 11 7 8 6 4 3 6 11 6 7 7 8 10 12 15 17 18 18 20 22 23 23 23 22
11 6 9 14 7 12 10 16 8 6 7 10 5 2 5 9 11 12 12 10 8 6 5 5 3 7 4 8 7 7 8 11 13 15 17 17 17 18 20 21 21 22 23 22
6 9 11 13 14 0 7 8 6 3 7 6 1 12 8 10 11 11 9 6 5 3 3 6 4 3 6 4 8 10 11 12 14 15 16 16 17 18 18 22 25 25 23 21
1 13 14 14 6 7 2 4 4 7 4 8 5 6 10 9 9 10 8 7 7 6 4 6 7 8 9 9 10 10 12 13 13 14 15 17 18 17 27 23 25 26 27 24
5 9 10 15 3 8 4 2 4 6 3 9 4 9 5 5 7 8 7 7 3 2 6 7 7 9 10 11 10 10 11 12 13 14 17 19 19 22 21 24 26 27 28 23
6 7 6 12 9 16 6 5 4 3 4 5 7 8 6 7 6 6 6 4 5 6 7 7 9 9 10 10 10 11 11 12 14 16 18 20 22 25 24 26 26 28 23 22
6 8 11 10 9 11 2 3 4 5 3 1 2 3 6 6 7 2 4 6 7 7 8 9 10 11 10 9 9 9 11 13 15 18 21 22 24 26 27 28 25 25 25 22
6 7 8 6 4 8 10 4 2 6 6 4 2 3 6 6 11 7 2 5 6 8 8 8 9 10 9 8 9 9 11 14 17 19 21 23 24 27 26 24 25 25 22 21
12 11 7 5 10 7 6 6 2 4 8 7 1 5 6 8 9 10 5 6 7 8 9 9 10 10 9 9 9 10 12 15 17 20 22 21 23 28 19 21 23 20 21 18
13 3 9 4 5 5 7 3 1 7 3 0 4 5 5 6 7 9 6 6 7 8 9 9 10 9 10 10 10 12 14 15 17 19 20 20 27 19 16 19 19 19 21 17
3 3 1 2 6 1 3 4 4 5 1 4 5 6 5 6 7 6 5 5 6 8 9 9 10 10 10 10 11 13 14 15 17 18 18 21 21 15 15 17 17 20 21 17
2 5 3 2 6 6 2 3 2 2 6 6 5 7 6 9 8 6 5 6 6 8 9 9 10 11 11 11 12 13 14 15 16 16 16 15 17 12 13 14 15 16 18 19
1 3 1 2 5 3 1 0 3 6 8 7 7 6 7 9 7 7 8 7 9 10 11 12 12 12 13 12 13 14 14 14 14 14 14 14 14 11 12 12 12 13 14 15
5 3 3 3 4 4 3 2 5 7 6 7 7 7 7 7 8 9 11 10 12 13 13 13 14 15 15 14 14 14 13 14 13 12 12 13 13 12 12 11 12 10 11 14
5 8 4 5 5 3 5 3 3 5 6 7 9 9 10 10 12 13 14 15 15 16 16 16 15 15 15 14 14 13 12 12 11 11 11 12 12 12 11 12 11 14 13 15
Wind_Direction
205 238 239 104 240 306 323 311 293 299 156 265 280 273 272 225 205 245 252 248 233 229 219 210 211 209 208 209 209 210 214 212 221 233 251 256 267 278 294 300 313 303 298 296
284 228 264 288 288 296 292 279 318 282 268 270 268 270 279 279 259 227 231 235 237 227 222 211 210 211 210 209 215 221 226 223 222 225 240 256 274 290 289 281 283 295 289 308
242 283 148 290 295 276 249 309 308 311 298 252 265 320 266 306 182 213 216 237 230 232 224 209 211 217 217 215 206 227 220 225 217 213 230 257 275 283 281 268 302 258 316 300
216 238 287 222 263 278 280 282 290 295 286 274 192 286 345 312 34 4 181 213 245 240 229 214 211 214 218 220 223 227 231 218 202 222 229 260 289 296 288 291 282 294 297 278
275 220 257 351 311 288 286 294 296 288 283 350 353 17 236 252 132 189 85 10 266 251 214 217 203 230 207 202 230 256 249 199 252 199 256 285 280 292 296 293 296 296 292 289
257 263 225 248 250 266 288 289 273 267 81 259 212 48 281 18 39 29 14 24 0 336 155 206 218 237 249 209 261 211 222 207 171 196 272 276 263 280 288 285 288 293 289 301
252 283 283 265 259 259 254 30 346 289 245 278 80 271 27 36 38 32 21 4 32 12 138 191 200 213 228 209 224 165 184 158 250 249 248 263 276 280 284 284 280 289 290 295
265 243 239 239 295 270 243 157 216 334 330 269 304 320 103 4 54 38 36 2 29 59 112 179 205 181 188 140 62 92 131 3 302 314 292 298 289 286 288 292 288 284 286 291
282 288 341 300 223 268 283 144 231 296 301 321 16 360 53 341 11 17 20 45 348 232 110 139 131 185 133 116 125 52 45 332 305 318 292 286 287 288 294 295 298 300 293 293
275 297 191 250 312 261 263 337 295 280 289 286 335 17 28 23 9 7 359 49 94 291 104 150 103 96 106 71 54 356 313 319 312 285 291 292 296 301 297 300 303 300 299 297
288 278 295 288 259 303 243 233 117 233 344 327 304 143 54 11 20 7 355 16 43 77 59 93 83 47 50 359 325 314 348 304 305 306 304 306 307 307 305 305 302 301 301 300
316 294 256 254 38 1 332 347 345 320 299 199 259 119 87 28 22 21 7 30 17 20 60 80 88 99 340 312 322 333 338 319 315 314 312 312 311 309 308 307 306 304 302 301
359 252 255 238 37 349 265 257 278 251 247 285 12 125 46 40 25 32 14 33 37 48 71 74 357 299 4 350 341 332 326 323 320 317 316 315 315 316 315 313 310 308 302 299
343 291 289 296 342 39 214 229 306 298 280 330 356 173 60 30 25 19 18 16 48 78 39 340 305 333 358 345 339 328 325 322 320 320 322 323 325 324 319 315 310 307 304 304
120 281 290 287 293 283 292 316 308 299 349 305 24 16 35 23 9 6 359 360 20 345 312 352 0 341 333 340 325 322 321 320 322 326 330 330 327 325 323 319 316 316 304 296
188 266 266 270 299 260 314 90 244 240 45 303 318 101 39 39 348 360 6 352 1 352 347 342 337 332 331 327 318 319 324 328 330 332 332 329 325 324 320 317 317 315 310 298
206 277 253 275 164 228 250 107 270 325 158 324 330 25 357 350 357 349 350 4 344 347 330 328 327 333 324 321 324 325 332 332 333 330 328 327 331 326 323 323 323 319 315 313
209 235 263 268 226 279 88 71 20 319 28 158 165 341 360 338 318 286 339 352 335 328 321 323 321 320 318 312 319 324 330 332 329 328 329 329 331 330 327 329 330 326 326 321
262 253 256 248 296 193 190 140 275 319 192 188 321 333 336 317 297 214 238 311 319 317 316 313 310 313 309 304 310 315 323 326 327 328 329 332 332 328 338 336 332 333 332 330
226 233 253 266 261 315 99 115 328 307 260 122 344 318 331 331 293 93 350 332 313 315 310 300 301 305 302 302 303 309 319 323 327 328 330 330 327 335 335 338 341 338 335 331
220 340 231 223 216 91 78 101 1 259 46 131 312 320 309 300 339 319 316 321 324 319 308 292 295 297 300 303 301 302 312 320 324 326 328 324 333 340 338 341 343 339 344 346
7 183 59 184 263 292 94 198 295 58 205 297 295 294 298 300 291 276 293 305 320 322 317 306 298 297 298 299 301 301 305 311 320 323 328 327 338 334 337 341 342 345 341 344
297 26 356 356 35 117 71 27 66 298 290 295 294 303 288 289 279 274 273 293 307 307 312 315 310 302 298 295 293 295 300 309 315 319 325 329 334 325 335 340 346 344 343 344
229 118 268 297 118 147 133 304 300 290 285 287 284 286 287 285 273 261 269 283 295 301 312 312 307 305 302 299 294 292 297 304 309 312 319 321 325 318 327 335 340 347 345 345
72 231 35 230 154 200 180 311 317 300 277 276 273 280 286 274 272 272 277 285 292 296 298 307 309 304 298 297 295 292 291 298 299 305 314 320 321 318 319 322 320 331 335 337
78 20 340 58 95 320 81 327 301 300 287 277 279 276 265 264 271 276 280 285 289 293 294 293 297 300 298 291 290 290 290 290 288 294 305 317 325 323 318 318 321 319 332 345